Location: Audinghen
(50.8518°N, 1.6129°E)
Time: 15:50:51
(UTC+00:00)

CENTAUR R/B - Pass Details

Date: 07 August 2020
Orbit: 754 x 1434 km, 63.5° (Epoch: 17 September)

Event Time Altitude Azimuth Distance (km) Brightness Sun altitude
Exits shadow 00:27:28 - 254° (WSW) 2,739 4.6 -22.5°
Reaches altitude 10° 00:27:38 10° 255° (WSW) 2,681 4.6 -22.5°
Maximum altitude 00:33:46 49° 330° (NNW) 1,364 3.5 -22.4°
Drops below altitude 10° 00:41:02 10° 44° (NE) 3,173 5.9 -22.2°
Sets 00:44:11 0° 50° (NE) 4,240 6.6 -22.1°
